CW3643 Weather Reports


time (UTC)temp
C
wind
direction
speed
KPH
gust
KPH
rain 1hr
cm
rain 24hr
cm
rain mn
cm
humidity
%
barometer
mb
20180818042015 20 353 0.0 0.0 0.00 0.00 0.00 72 1017.7
20180818041011 20 353 0.0 0.0 0.00 0.00 0.00 71 1017.7
20180818040023 21 353 0.0 0.0 0.00 0.00 0.00 71 1017.7
20180818035011 21 353 0.0 0.0 0.00 0.00 0.00 70 1017.7
20180818034016 21 353 0.0 1.6 0.00 0.00 0.00 69 1017.7
20180818032027 21 353 3.2 4.8 0.00 0.00 0.00 69 1017.6
20180818031017 21 353 3.2 4.8 0.00 0.00 0.00 69 1017.6
20180818030022 21 353 0.0 3.2 0.00 0.00 0.00 68 1017.7
20180818025027 21 353 0.0 4.8 0.00 0.00 0.00 68 1017.8
20180818024016 21 353 0.0 1.6 0.00 0.00 0.00 68 1017.8
20180818023017 21 353 1.6 4.8 0.00 0.00 0.00 68 1017.8
20180818022019 21 343 3.2 6.4 0.00 0.00 0.00 68 1017.7
20180818021031 21 349 3.2 9.7 0.00 0.00 0.00 68 1017.7
20180818020028 21 347 6.4 9.7 0.00 0.00 0.00 68 1017.9
20180818015031 21 338 6.4 11.3 0.00 0.00 0.00 68 1017.9
20180818014021 21 338 8.0 12.9 0.00 0.00 0.00 68 1017.9
20180818011011 21 340 8.0 11.3 0.00 0.00 0.00 68 1018.2
20180818010014 21 336 6.4 9.7 0.00 0.00 0.00 67 1018.3
20180818005029 22 341 6.4 11.3 0.00 0.00 0.00 67 1018.4
20180818003116 22 342 4.8 9.7 0.00 0.00 0.00 67 1018.5
20180818002027 21 342 8.0 11.3 0.00 0.00 0.00 67 1018.5
20180818001020 21 317 6.4 9.7 0.00 0.00 0.00 68 1018.6
20180817235028 21 353 6.4 12.9 0.00 0.00 0.00 68 1018.6
20180817234015 21 352 8.0 12.9 0.00 0.00 0.00 68 1018.6
20180817233017 21 353 9.7 11.3 0.00 0.00 0.00 69 1018.6
20180817232017 21 311 8.0 0.0 0.00 0.00 0.00 69 1018.5
20180817231022 21 339 9.7 14.5 0.00 0.00 0.00 69 1018.7
20180817230016 21 2 8.0 14.5 0.00 0.00 0.00 69 1018.8
20180817225036 21 352 8.0 19.3 0.00 0.00 0.00 69 1018.8
20180817224012 21 336 11.3 17.7 0.00 0.00 0.00 69 1018.8
20180817223013 21 336 8.0 14.5 0.00 0.00 0.00 69 1018.9
20180817222017 21 329 8.0 16.1 0.00 0.00 0.00 69 1018.9
20180817221024 21 322 11.3 17.7 0.00 0.00 0.00 68 1018.9
20180817220017 21 321 11.3 19.3 0.00 0.00 0.00 68 1018.9
20180817215022 21 343 9.7 17.7 0.00 0.00 0.00 68 1018.9
20180817214025 21 331 11.3 17.7 0.00 0.00 0.00 68 1018.8
20180817213028 21 350 11.3 17.7 0.00 0.00 0.00 69 1018.9
20180817212011 21 347 9.7 17.7 0.00 0.00 0.00 69 1018.8
20180817211023 21 349 11.3 17.7 0.00 0.00 0.00 69 1018.8
20180817210024 21 342 9.7 22.5 0.00 0.00 0.00 68 1018.7
20180817205014 21 340 12.9 19.3 0.00 0.00 0.00 68 1018.7
20180817204014 21 349 11.3 20.9 0.00 0.00 0.00 68 1018.7
20180817203021 22 351 14.5 20.9 0.00 0.00 0.00 67 1018.5
20180817202026 22 321 14.5 25.7 0.00 0.00 0.00 67 1018.4
20180817201014 22 332 17.7 22.5 0.00 0.00 0.00 67 1018.3
20180817200012 22 338 14.5 20.9 0.00 0.00 0.00 66 1018.3
20180817195018 22 350 14.5 22.5 0.00 0.00 0.00 66 1018.2
20180817194026 22 330 14.5 25.7 0.00 0.00 0.00 66 1018.1
20180817193111 22 335 17.7 24.1 0.00 0.00 0.00 66 1018.1
20180817192027 23 346 17.7 29.0 0.00 0.00 0.00 65 1018.1
20180817191027 23 340 16.1 27.4 0.00 0.00 0.00 65 1018.0
20180817190022 23 328 526.3 526.3 0.00 0.00 0.00 64 1017.8
20180817185024 23 319 19.3 30.6 0.00 0.00 0.00 64 1017.9
20180817184011 23 345 19.3 29.0 0.00 0.00 0.00 64 1017.7
20180817183013 23 346 17.7 27.4 0.00 0.00 0.00 63 1017.8
20180817182016 23 326 16.1 29.0 0.00 0.00 0.00 63 1017.8
20180817181019 23 324 20.9 30.6 0.00 0.00 0.00 63 1017.8
20180817180022 23 333 22.5 29.0 0.00 0.00 0.00 62 1017.8
20180817175026 24 344 19.3 27.4 0.00 0.00 0.00 61 1017.9
20180817174014 25 330 16.1 24.1 0.00 0.00 0.00 60 1017.9
20180817173017 25 319 9.7 27.4 0.00 0.00 0.00 59 1017.9
20180817172020 25 332 20.9 29.0 0.00 0.00 0.00 59 1017.9
20180817171024 25 347 17.7 27.4 0.00 0.00 0.00 58 1017.9
20180817165043 25 326 19.3 30.6 0.00 0.00 0.00 59 1017.9
20180817164023 25 315 14.5 30.6 0.00 0.00 0.00 59 1017.9
20180817163030 25 355 11.3 29.0 0.00 0.00 0.00 59 1017.9
20180817162018 25 349 16.1 27.4 0.00 0.00 0.00 59 1017.9
20180817161058 26 334 14.5 29.0 0.00 0.00 0.00 58 1017.9
20180817160016 26 335 16.1 27.4 0.00 0.00 0.00 58 1017.9
20180817155020 26 333 17.7 27.4 0.00 0.00 0.00 59 1018.0
20180817154025 26 343 20.9 27.4 0.00 0.00 0.00 58 1018.2
20180817153012 26 318 11.3 25.7 0.00 0.00 0.00 57 1018.2
20180817152023 27 324 8.0 20.9 0.00 0.00 0.00 57 1018.2
20180817151012 26 313 19.3 24.1 0.00 0.00 0.00 56 1018.4
20180817150022 27 359 6.4 17.7 0.00 0.00 0.00 56 1018.5
20180817145029 27 317 11.3 17.7 0.00 0.00 0.00 55 1018.5
20180817144020 27 336 8.0 14.5 0.00 0.00 0.00 54 1018.7
20180817143018 27 355 11.3 17.7 0.00 0.00 0.00 55 1018.8
20180817142026 27 60 3.2 14.5 0.00 0.00 0.00 56 1019.0
20180817141030 27 330 4.8 12.9 0.00 0.00 0.00 56 1019.0
20180817140015 27 25 4.8 8.0 0.00 0.00 0.00 56 1019.0
20180817134115 27 114 4.8 11.3 0.00 0.00 0.00 58 1019.2
20180817133020 27 137 8.0 11.3 0.00 0.00 0.00 57 1019.1
20180817132011 26 127 3.2 17.7 0.00 0.00 0.00 59 1019.1
20180817131011 26 84 6.4 12.9 0.00 0.00 0.00 59 1019.3
20180817130014 26 71 8.0 11.3 0.00 0.00 0.00 59 1019.4
20180817125015 26 185 4.8 8.0 0.00 0.00 0.00 61 1019.4
20180817124026 25 190 3.2 6.4 0.00 0.00 0.00 63 1019.5
20180817123027 26 322 6.4 12.9 0.00 0.00 0.00 62 1019.7
20180817121022 25 92 4.8 25.7 0.00 0.00 0.00 62 1019.8
20180817120022 25 17 8.0 20.9 0.00 0.00 0.00 63 1019.9
20180817115024 25 322 8.0 17.7 0.00 0.00 0.00 63 1019.9
20180817114028 25 308 4.8 11.3 0.00 0.00 0.00 63 1019.9
20180817113015 24 344 3.2 12.9 0.00 0.00 0.00 65 1020.1
20180817112029 24 272 4.8 12.9 0.00 0.00 0.00 66 1020.2
20180817111017 23 100 3.2 11.3 0.00 0.00 0.00 67 1020.3
20180817110018 23 330 4.8 12.9 0.00 0.00 0.00 67 1020.3
20180817105046 23 303 4.8 14.5 0.00 0.00 0.00 69 1020.4
20180817103021 22 313 9.7 17.7 0.00 0.00 0.00 70 1020.5
20180817100022 21 49 4.8 17.7 0.00 0.00 0.00 72 1020.5
20180817095027 21 334 12.9 19.3 0.00 0.00 0.00 72 1020.4
20180817094029 21 338 9.7 0.0 0.00 0.00 0.00 74 1020.2
20180817093028 21 334 14.5 20.9 0.00 0.00 0.00 74 1020.3
20180817092022 20 355 14.5 25.7 0.00 0.00 0.00 76 1020.2
20180817091026 20 336 14.5 25.7 0.00 0.00 0.00 77 1020.2
20180817090025 20 324 12.9 27.4 0.00 0.00 0.00 78 1020.0
20180817085016 20 347 8.0 19.3 0.00 0.00 0.00 80 1020.1
20180817084017 19 319 14.5 22.5 0.00 0.00 0.00 81 1019.9
20180817083029 19 338 12.9 24.1 0.00 0.00 0.00 82 1020.1
20180817081030 18 328 9.7 20.9 0.00 0.00 0.00 84 1020.1
20180817080017 18 343 9.7 19.3 0.00 0.00 0.00 85 1020.3
20180817075012 18 343 11.3 32.2 0.00 0.00 0.00 85 1020.1
20180817074020 18 360 12.9 32.2 0.00 0.00 0.00 86 1020.1
20180817073019 18 349 12.9 27.4 0.00 0.00 0.00 86 1019.9
20180817072024 18 325 12.9 27.4 0.00 0.00 0.00 86 1019.8
20180817071028 17 286 17.7 29.0 0.00 0.00 0.00 87 1019.6
20180817070027 17 336 19.3 29.0 0.00 0.00 0.00 87 1019.6
20180817065024 17 324 11.3 29.0 0.00 0.00 0.00 87 1019.7
20180817064017 17 328 11.3 22.5 0.00 0.00 0.00 87 1019.6
20180817063018 17 332 9.7 22.5 0.00 0.00 0.00 87 1019.6
20180817062010 17 345 8.0 20.9 0.00 0.00 0.00 86 1019.6
20180817060023 17 20 9.7 32.2 0.00 0.00 0.00 87 1019.4
20180817055322 17 332 24.1 37.0 0.00 0.00 0.00 87 1019.1